Location: Mascot Post Office (historical)
(40.2645°N, 99.5462°W)
Time: 17:27:53
(UTC+00:00)

Cosmos 1869 Rocket - Pass Details

Date: 14 July 2020
Orbit: 605 x 633 km, 82.5° (Epoch: 05 August)

Event Time Altitude Azimuth Distance (km) Brightness Sun altitude
Exits shadow 08:33:21 57° 284° (WNW) 717 3.7 -23.1°
Drops below altitude 10° 08:37:34 10° 359° (N) 1,966 7.0 -22.8°
Sets 08:39:50 0° 4° (N) 2,877 8.1 -22.5°
